Regional Weather Roundup
Issued by NWS

Home | Current Version | Previous Version | Text Only | Print | Product List | Glossary On
Versions: 1 2 3 4 5 6 7 8 9 10 11 12 13 14 15 16 17 18 19 20 21 22 23 24 25 26 27 28 29 30 31 32 33 34 35 36 37 38 39 40 41 42 43 44 45 46 47 48 49 50
000
ASUS42 KFFC 190603
RWRGA
WEATHER ROUNDUP FOR GEORGIA
NATIONAL WEATHER SERVICE PEACHTREE CITY GA
100 AM EST FRI JAN 19 2018

NOTE: "FAIR" INDICATES FEW OR NO CLOUDS BELOW 12,000 FEET WITH NO
SIGNIFICANT WEATHER AND/OR OBSTRUCTIONS TO VISIBILITY.

* = USE WITH CAUTION. THE STATIONS MARKED WITH AN ASTERISK MAY NOT
REPORT WEATHER SUCH AS PRECIPITATION, FOG, OR THUNDER AND ARE NOT
QUALITY CONTROLLED BY NWS.

THE REMARK "TC" DENOTES TEMPERATURE READING IN DEGREES CELSIUS.

GAZ001>058-190700-
NORTH GEORGIA

CITY           SKY/WX    TMP DP  RH WIND       PRES   REMARKS
ATLANTA        FAIR      28  13  53 NW7       30.30F WCI  21
6HR MIN TEMP:  28; 6HR MAX TEMP:  35;

ATHENS         FAIR      28  14  55 W5        30.27F WCI  23
6HR MIN TEMP:  28; 6HR MAX TEMP:  38;

CHAMBLEE       FAIR      28  11  48 W5        30.30F WCI  23
6HR MIN TEMP:  27; 6HR MAX TEMP:  34;

PEACHTREE CITY FAIR      25  17  72 CALM      30.32F
6HR MIN TEMP:  24; 6HR MAX TEMP:  32;

ROME           FAIR      21  16  81 CALM      30.35S
6HR MIN TEMP:  19; 6HR MAX TEMP:  33;

WEST ATLANTA   FAIR      28  13  53 CALM      30.31F
6HR MIN TEMP:  28; 6HR MAX TEMP:  35;

GAINESVILLE    FAIR      30  13  49 W9        30.26F WCI  22
6HR MIN TEMP:  26; 6HR MAX TEMP:  34;

CARTERSVILLE   FAIR      23  15  71 CALM      30.35S
6HR MIN TEMP:  22; 6HR MAX TEMP:  31; 6HR PCP: TRACE;



CITY           SKY/WX    TMP DP  RH WIND       PRES   REMARKS
DALTON*        FAIR      19  18  93 CALM      30.35F
LAWRENCEVILLE* FAIR      29  13  51 W5          N/A  WCI  24
MARIETTA       FAIR      25  11  55 W6        30.30S WCI  18
KENNESAW*      FAIR      27  13  55 W5        30.32F WCI  22
CANTON*        FAIR      32  14  47 W10       30.29S WCI  24
BLAIRSVILLE*   FAIR      20  16  84 S3        30.28F
$$

GAZ059>098-102>109-190700-
CENTRAL GEORGIA

CITY           SKY/WX    TMP DP  RH WIND       PRES   REMARKS
AUGUSTA-BUSH   FAIR      26  18  71 S3        30.31F
6HR MIN TEMP:  24; 6HR MAX TEMP:  37;

AUGUSTA-DANIEL FAIR      34  15  46 SW3       30.29F
6HR MIN TEMP:  34; 6HR MAX TEMP:  44;

COLUMBUS       FAIR      29  18  63 CALM      30.36F
6HR MIN TEMP:  28; 6HR MAX TEMP:  42;

MACON          FAIR      28  18  66 W6        30.34F WCI  22
6HR MIN TEMP:  26; 6HR MAX TEMP:  38;

ROBINS AFB     CLEAR     26  21  80 CALM      30.33F


CITY           SKY/WX    TMP DP  RH WIND       PRES   REMARKS
LAGRANGE*      FAIR      24  19  81 CALM      30.34F
SYLVANIA*      FAIR      29  22  75 CALM      30.32F
MILLEDGEVILLE* FAIR      30  23  74 CALM      30.32F
$$

GAZ099>101-110>166-190700-
SOUTH GEORGIA

CITY           SKY/WX    TMP DP  RH WIND       PRES   REMARKS
SAVANNAH       FAIR      29  19  66 CALM      30.33F
6HR MIN TEMP:  28; 6HR MAX TEMP:  39;

VALDOSTA       FAIR      24  20  84 CALM      30.36F
6HR MIN TEMP:  24; 6HR MAX TEMP:  33;

ALMA           FAIR      26  22  84 CALM      30.34F
6HR MIN TEMP:  26; 6HR MAX TEMP:  36;

ST SIMONS      FAIR      32  24  72 CALM      30.34F
6HR MIN TEMP:  31; 6HR MAX TEMP:  39;

FT STEWART     FAIR      28  21  74 CALM      30.31F
ALBANY         FAIR      27  19  72 CALM      30.38F
HUNTER AFB     FAIR      29  17  61 CALM      30.30F
MOODY AFB      FAIR      28  20  71 CALM      30.34F
BRUNSWICK      FAIR      30  23  74 CALM      30.34F


CITY           SKY/WX    TMP DP  RH WIND       PRES   REMARKS
BAINBRIDGE*      N/A     30  27  86 CALM      30.38F
MOULTRIE*      FAIR      32  23  69 CALM      30.36F
VIDALIA*       FAIR      30  25  80 CALM      30.33S
WAYCROSS*      FAIR      26  21  80 CALM      30.35S
DOUGLAS*       FAIR      27  25  93 CALM      30.37S
$$




USA.gov is the U.S. government's official web portal to all federal, state and local government web resources and services.